Retour au catalogue

COSMOS 2251 DEB

ActifLEO
NORAD 37330·DEBRIS·🇷🇺 Russia

Lancé Jun 16, 1993 depuis Plesetsk Cosmodrome

Loading…

Prochains Passages (prochaines 24 heures)

TLE

FraisSource: Space-Track

Époque: Sep 13, 2026, 22:02 UTC

1 37330U 93036BKW 26256.91810374  .00000660  00000-0  14017-3 0  9999
2 37330  74.0166 129.4325 0058298 267.8676  91.5813 14.60248398903848

Suivez COSMOS 2251 DEB en temps réel avec AllMySat

Download on the App Store